When you browse on this site, cookies collect data to enhance your experience and personalize the content and advertising you see.
Visit our Privacy Policy to learn more. By continuing to use the site, you agree to this use of cookies and data.
  • In United Kingdom
  • List of Countries
  • For 7 days
  • Water Temperature
  • Weather Map
  • Weather Widgets
  • user-avatar
    Login

    Hourly Weather Athens

    Today, 9 December, Monday

    Time Temperature Precipitation Wind Pressure Humidity
    00:00 +13°C° 0 mm 2 mps 754 mmHg 70%
    01:00 +13°C° 0 mm 2 mps 754 mmHg 71%
    02:00 +12°C° 0 mm 1 mps 754 mmHg 72%
    03:00 +12°C° 0 mm 1 mps 753 mmHg 72%
    04:00 +12°C° 0 mm 1 mps 753 mmHg 72%
    05:00 +12°C° 0 mm 1 mps 753 mmHg 72%
    06:00 +12°C° 0 mm 1 mps 753 mmHg 72%
    07:00 +12°C° 0 mm 1 mps 753 mmHg 72%
    08:00 +12°C° 0 mm 1 mps 753 mmHg 73%
    09:00 +13°C° 0 mm 1 mps 753 mmHg 69%
    10:00 +14°C° 0 mm 1 mps 753 mmHg 64%
    11:00 +16°C° 0 mm 1 mps 753 mmHg 60%
    12:00 +16°C° 0 mm 2 mps 752 mmHg 62%
    13:00 +16°C° 0 mm 2 mps 751 mmHg 63%
    14:00 +17°C° 0 mm 2 mps 751 mmHg 63%
    15:00 +16°C° 0 mm 2 mps 751 mmHg 66%
    16:00 +16°C° 0 mm 2 mps 751 mmHg 68%
    17:00 +15°C° 0 mm 2 mps 750 mmHg 71%
    18:00 +15°C° 0.1 mm 2 mps 750 mmHg 74%
    19:00 +14°C° 0.1 mm 3 mps 750 mmHg 77%
    20:00 +13°C° 0.1 mm 3 mps 750 mmHg 79%
    21:00 +13°C° 0.2 mm 3 mps 750 mmHg 80%
    22:00 +13°C° 0.2 mm 3 mps 750 mmHg 81%
    23:00 +14°C° 0.2 mm 2 mps 749 mmHg 81%

    Tomorrow, 10 December, Tuesday

    Time Temperature Precipitation Wind Pressure Humidity
    00:00 +14°C° 0.3 mm 2 mps 749 mmHg 82%
    01:00 +14°C° 0.3 mm 2 mps 749 mmHg 83%
    02:00 +14°C° 0.3 mm 2 mps 749 mmHg 84%
    03:00 +14°C° 0.2 mm 2 mps 748 mmHg 84%
    04:00 +14°C° 0.2 mm 2 mps 748 mmHg 84%
    05:00 +13°C° 0.2 mm 2 mps 748 mmHg 85%
    06:00 +14°C° 0.2 mm 2 mps 748 mmHg 84%
    07:00 +14°C° 0.2 mm 2 mps 748 mmHg 84%
    08:00 +14°C° 0.2 mm 2 mps 748 mmHg 83%
    09:00 +13°C° 0.5 mm 3 mps 747 mmHg 83%
    10:00 +14°C° 0.5 mm 4 mps 747 mmHg 82%
    11:00 +14°C° 0.5 mm 5 mps 747 mmHg 81%
    12:00 +14°C° 0.8 mm 5 mps 747 mmHg 83%
    13:00 +14°C° 0.8 mm 5 mps 746 mmHg 84%
    14:00 +14°C° 0.8 mm 5 mps 745 mmHg 86%
    15:00 +14°C° 1.2 mm 5 mps 745 mmHg 86%
    16:00 +14°C° 1.2 mm 5 mps 745 mmHg 86%
    17:00 +14°C° 1.2 mm 5 mps 745 mmHg 86%
    18:00 +14°C° 1.2 mm 5 mps 745 mmHg 85%
    19:00 +14°C° 1.2 mm 5 mps 744 mmHg 84%
    20:00 +14°C° 1.2 mm 5 mps 744 mmHg 83%
    21:00 +14°C° 1.4 mm 5 mps 744 mmHg 83%
    22:00 +14°C° 1.4 mm 5 mps 744 mmHg 83%
    23:00 +14°C° 1.4 mm 5 mps 744 mmHg 82%

    Day after tomorrow, 11 December, Wednesday

    Time Temperature Precipitation Wind Pressure Humidity
    00:00 +14°C° 0.9 mm 4 mps 744 mmHg 83%
    01:00 +14°C° 0.9 mm 3 mps 744 mmHg 84%
    02:00 +14°C° 0.9 mm 2 mps 744 mmHg 85%
    03:00 +13°C° 0.4 mm 3 mps 744 mmHg 85%
    04:00 +13°C° 0.4 mm 3 mps 744 mmHg 86%
    05:00 +12°C° 0.4 mm 3 mps 743 mmHg 86%
    06:00 +12°C° 0.2 mm 3 mps 744 mmHg 86%
    07:00 +13°C° 0.2 mm 2 mps 744 mmHg 85%
    08:00 +12°C° 0.2 mm 2 mps 744 mmHg 84%
    09:00 +13°C° 0.1 mm 2 mps 745 mmHg 79%
    10:00 +14°C° 0.1 mm 1 mps 745 mmHg 74%
    11:00 +15°C° 0.1 mm 1 mps 745 mmHg 69%
    12:00 +16°C° 0.5 mm 1 mps 745 mmHg 68%
    13:00 +16°C° 0.5 mm 2 mps 745 mmHg 66%
    14:00 +16°C° 0.5 mm 2 mps 745 mmHg 65%
    15:00 +16°C° 0.5 mm 2 mps 745 mmHg 68%
    16:00 +14°C° 0.5 mm 3 mps 744 mmHg 72%
    17:00 +13°C° 0.5 mm 3 mps 744 mmHg 76%
    18:00 +12°C° 1 mm 3 mps 744 mmHg 77%
    19:00 +12°C° 1 mm 4 mps 745 mmHg 79%
    20:00 +11°C° 1 mm 4 mps 745 mmHg 81%
    21:00 +11°C° 0.2 mm 4 mps 745 mmHg 81%
    22:00 +11°C° 0.2 mm 4 mps 745 mmHg 81%
    23:00 +10°C° 0.2 mm 3 mps 745 mmHg 82%

    12 December, Thursday

    Time Temperature Precipitation Wind Pressure Humidity
    00:00 +10°C° 0 mm 3 mps 745 mmHg 82%
    01:00 +10°C° 0 mm 3 mps 744 mmHg 82%
    02:00 +10°C° 0 mm 3 mps 744 mmHg 82%
    03:00 +10°C° 0 mm 3 mps 744 mmHg 81%
    04:00 +10°C° 0 mm 3 mps 744 mmHg 80%
    05:00 +10°C° 0 mm 3 mps 744 mmHg 80%
    06:00 +10°C° 0 mm 3 mps 744 mmHg 80%
    07:00 +9°C° 0 mm 3 mps 744 mmHg 79%
    08:00 +9°C° 0 mm 3 mps 744 mmHg 79%
    09:00 +10°C° 0 mm 3 mps 745 mmHg 76%
    10:00 +11°C° 0 mm 3 mps 745 mmHg 72%
    11:00 +12°C° 0 mm 3 mps 745 mmHg 69%
    12:00 +13°C° 0 mm 3 mps 745 mmHg 66%
    13:00 +14°C° 0 mm 3 mps 745 mmHg 64%
    14:00 +14°C° 0 mm 3 mps 745 mmHg 61%
    15:00 +15°C° 0 mm 2 mps 745 mmHg 64%
    16:00 +14°C° 0 mm 2 mps 745 mmHg 67%
    17:00 +14°C° 0 mm 1 mps 745 mmHg 70%
    18:00 +13°C° 0 mm 1 mps 745 mmHg 71%
    19:00 +13°C° 0 mm 1 mps 745 mmHg 72%
    20:00 +13°C° 0 mm 1 mps 745 mmHg 74%
    21:00 +12°C° 0 mm 1 mps 746 mmHg 74%
    22:00 +12°C° 0 mm 2 mps 746 mmHg 74%
    23:00 +12°C° 0 mm 2 mps 746 mmHg 74%

    13 December, Friday

    Time Temperature Precipitation Wind Pressure Humidity
    00:00 +12°C° 0 mm 2 mps 746 mmHg 75%
    01:00 +12°C° 0 mm 2 mps 745 mmHg 77%
    02:00 +12°C° 0 mm 2 mps 745 mmHg 79%
    03:00 +12°C° 0 mm 2 mps 745 mmHg 79%
    04:00 +12°C° 0 mm 2 mps 745 mmHg 80%
    05:00 +12°C° 0 mm 2 mps 745 mmHg 81%
    06:00 +12°C° 0 mm 2 mps 745 mmHg 80%
    07:00 +12°C° 0 mm 2 mps 745 mmHg 79%
    08:00 +12°C° 0 mm 2 mps 745 mmHg 78%
    09:00 +12°C° 0 mm 3 mps 745 mmHg 72%
    10:00 +13°C° 0 mm 3 mps 745 mmHg 66%
    11:00 +14°C° 0 mm 4 mps 745 mmHg 60%
    12:00 +14°C° 0 mm 4 mps 745 mmHg 58%
    13:00 +15°C° 0 mm 4 mps 745 mmHg 56%
    14:00 +15°C° 0 mm 4 mps 744 mmHg 55%
    15:00 +14°C° 0 mm 4 mps 744 mmHg 57%
    16:00 +14°C° 0 mm 4 mps 744 mmHg 60%
    17:00 +13°C° 0 mm 4 mps 744 mmHg 63%
    18:00 +13°C° 0 mm 4 mps 744 mmHg 65%
    19:00 +13°C° 0 mm 4 mps 744 mmHg 66%
    20:00 +12°C° 0 mm 4 mps 744 mmHg 67%
    21:00 +12°C° 0 mm 4 mps 744 mmHg 68%
    22:00 +12°C° 0 mm 5 mps 744 mmHg 69%
    23:00 +12°C° 0 mm 5 mps 744 mmHg 70%

    14 December, Saturday

    Time Temperature Precipitation Wind Pressure Humidity
    00:00 +12°C° 0 mm 5 mps 744 mmHg 71%
    01:00 +12°C° 0 mm 5 mps 743 mmHg 72%
    02:00 +11°C° 0 mm 6 mps 743 mmHg 73%
    03:00 +11°C° 0 mm 7 mps 742 mmHg 71%
    04:00 +12°C° 0 mm 8 mps 741 mmHg 69%
    05:00 +13°C° 0 mm 9 mps 740 mmHg 67%
    06:00 +13°C° 1.1 mm 9 mps 740 mmHg 73%
    07:00 +13°C° 1.1 mm 9 mps 739 mmHg 80%
    08:00 +12°C° 1.1 mm 10 mps 739 mmHg 86%
    09:00 +13°C° 0.7 mm 9 mps 739 mmHg 77%
    10:00 +13°C° 0.7 mm 9 mps 739 mmHg 68%
    11:00 +15°C° 0.7 mm 9 mps 739 mmHg 59%
    12:00 +14°C° 0 mm 10 mps 739 mmHg 56%
    13:00 +14°C° 0 mm 11 mps 739 mmHg 53%
    14:00 +14°C° 0 mm 12 mps 739 mmHg 49%
    15:00 +14°C° 0 mm 11 mps 740 mmHg 52%
    16:00 +13°C° 0 mm 11 mps 740 mmHg 54%
    17:00 +12°C° 0 mm 11 mps 741 mmHg 57%
    18:00 +12°C° 0 mm 10 mps 741 mmHg 58%
    19:00 +12°C° 0 mm 10 mps 742 mmHg 59%
    20:00 +11°C° 0 mm 9 mps 742 mmHg 60%
    21:00 +11°C° 0 mm 8 mps 743 mmHg 60%
    22:00 +11°C° 0 mm 7 mps 744 mmHg 61%
    23:00 +10°C° 0 mm 6 mps 745 mmHg 61%
    Show more